KKP2674 YBHM-YBBN

Flight info

Callsign KKP2674
Flight time 1h 16m
Altitude 19000
Route OVRON B462 MK V153 MUNAR/N0460F350 Y61 RUROX/N0452F370 Y177 BN
Aircraft A320/M-SDE3FGHIRWYZ/LB1

Departure

Time 2026-04-26 08:03
Airport Hamilton Island Airport (YBHM)

Arrival

Time 2026-04-26 09:20
Airport Brisbane International Airport (YBBN)
Time Latitude Longitude Altitude Speed Heading
2026-04-26 07:50 -20.35224 148.94900 23 ft 0 kts 310°
2026-04-26 07:54 -20.35224 148.94901 20 ft 0 kts 310°
2026-04-26 08:00 -20.35223 148.94894 20 ft 4 kts 290°
2026-04-26 08:01 -20.35249 148.94831 20 ft 14 kts 236°
2026-04-26 08:01 -20.35238 148.94756 21 ft 8 kts 349°
2026-04-26 08:01 -20.35173 148.94702 19 ft 18 kts 327°
2026-04-26 08:01 -20.35114 148.94665 19 ft 18 kts 201°
2026-04-26 08:02 -20.35174 148.94703 19 ft 2 kts 141°
2026-04-26 08:02 -20.35180 148.94710 23 ft 0 kts 141°
2026-04-26 08:02 -20.35236 148.94755 20 ft 39 kts 143°
2026-04-26 08:03 -20.35649 148.95085 25 ft 105 kts 143°
2026-04-26 08:03 -20.36379 148.95653 61 ft 150 kts 147°
2026-04-26 08:03 -20.37306 148.96288 587 ft 162 kts 150°
2026-04-26 08:03 -20.38378 148.96689 1357 ft 163 kts 163°
2026-04-26 08:04 -20.39461 148.96991 2178 ft 156 kts 164°
2026-04-26 08:04 -20.40448 148.97269 2973 ft 136 kts 163°
2026-04-26 08:04 -20.41298 148.97505 3620 ft 125 kts 162°
2026-04-26 08:04 -20.42184 148.97755 3836 ft 136 kts 162°
2026-04-26 08:05 -20.43136 148.98024 4102 ft 144 kts 162°
2026-04-26 08:05 -20.44003 148.98265 4787 ft 119 kts 163°
2026-04-26 08:05 -20.44857 148.98503 4929 ft 133 kts 163°
2026-04-26 08:05 -20.45858 148.98783 5040 ft 165 kts 163°
2026-04-26 08:06 -20.47065 148.99119 5139 ft 195 kts 163°
2026-04-26 08:06 -20.48457 148.99504 5416 ft 218 kts 163°
2026-04-26 08:06 -20.50007 148.99934 5765 ft 242 kts 163°
2026-04-26 08:06 -20.51702 149.00404 6322 ft 257 kts 163°
2026-04-26 08:07 -20.53456 149.00890 7041 ft 263 kts 163°
2026-04-26 08:07 -20.55242 149.01385 7840 ft 267 kts 163°
2026-04-26 08:07 -20.57056 149.01888 8599 ft 272 kts 163°
2026-04-26 08:07 -20.58904 149.02402 9350 ft 277 kts 163°
2026-04-26 08:08 -20.60784 149.02925 10081 ft 281 kts 163°
2026-04-26 08:08 -20.62686 149.03454 10796 ft 283 kts 164°
2026-04-26 08:08 -20.64600 149.03987 11522 ft 286 kts 165°
2026-04-26 08:08 -20.66533 149.04526 12234 ft 288 kts 166°
2026-04-26 08:09 -20.68485 149.05067 12909 ft 292 kts 166°
2026-04-26 08:09 -20.70462 149.05618 13572 ft 295 kts 167°
2026-04-26 08:09 -20.72464 149.06177 14167 ft 299 kts 167°
2026-04-26 08:09 -20.74492 149.06743 14717 ft 303 kts 168°
2026-04-26 08:10 -20.76549 149.07316 15269 ft 308 kts 168°
2026-04-26 08:10 -20.78637 149.07897 15821 ft 312 kts 168°
2026-04-26 08:10 -20.80747 149.08488 16329 ft 318 kts 168°
2026-04-26 08:10 -20.82904 149.09101 16851 ft 323 kts 168°
2026-04-26 08:11 -20.84627 149.09594 17045 ft 335 kts 168°
2026-04-26 08:11 -20.86938 149.10254 17180 ft 352 kts 168°
2026-04-26 08:11 -20.89363 149.10949 17304 ft 369 kts 168°
2026-04-26 08:11 -20.91894 149.11676 17443 ft 385 kts 168°
2026-04-26 08:12 -20.94534 149.12437 17639 ft 398 kts 167°
2026-04-26 08:12 -20.97229 149.13218 18098 ft 405 kts 168°
2026-04-26 08:12 -20.99964 149.14012 18594 ft 409 kts 168°
2026-04-26 08:12 -21.02723 149.14811 19081 ft 412 kts 168°
2026-04-26 08:13 -21.05502 149.15613 19567 ft 416 kts 168°
2026-04-26 08:13 -21.08311 149.16421 20053 ft 419 kts 168°
2026-04-26 08:13 -21.11134 149.17233 20521 ft 422 kts 168°
2026-04-26 08:13 -21.13982 149.18049 20961 ft 426 kts 168°
2026-04-26 08:14 -21.16855 149.18875 21390 ft 429 kts 169°
2026-04-26 08:14 -21.19740 149.19710 21806 ft 432 kts 168°
2026-04-26 08:14 -21.22656 149.20558 22219 ft 434 kts 169°
2026-04-26 08:14 -21.25583 149.21407 22599 ft 437 kts 169°
2026-04-26 08:15 -21.28530 149.22262 22979 ft 440 kts 169°
2026-04-26 08:15 -21.30496 149.22831 23231 ft 442 kts 169°
2026-04-26 08:15 -21.33474 149.23692 23605 ft 445 kts 169°
2026-04-26 08:15 -21.36475 149.24556 23915 ft 448 kts 169°
2026-04-26 08:16 -21.40518 149.25720 24309 ft 451 kts 169°
2026-04-26 08:16 -21.43557 149.26597 24609 ft 454 kts 169°
2026-04-26 08:16 -21.45582 149.27183 24789 ft 456 kts 169°
2026-04-26 08:16 -21.48654 149.28074 25091 ft 458 kts 169°
2026-04-26 08:17 -21.51689 149.29206 25384 ft 465 kts 163°
2026-04-26 08:17 -21.54708 149.30476 25669 ft 468 kts 163°
2026-04-26 08:17 -21.57749 149.31752 25957 ft 470 kts 163°
2026-04-26 08:17 -21.60807 149.33038 26241 ft 473 kts 163°
2026-04-26 08:18 -21.63879 149.34329 26527 ft 475 kts 163°
2026-04-26 08:18 -21.66956 149.35621 26930 ft 475 kts 163°
2026-04-26 08:18 -21.70033 149.36917 27337 ft 475 kts 163°
2026-04-26 08:18 -21.73105 149.38211 27742 ft 475 kts 163°
2026-04-26 08:19 -21.76180 149.39505 28142 ft 475 kts 164°
2026-04-26 08:19 -21.79258 149.40801 28551 ft 475 kts 164°
2026-04-26 08:19 -21.82336 149.42097 28956 ft 475 kts 164°
2026-04-26 08:19 -21.85409 149.43393 29378 ft 475 kts 164°
2026-04-26 08:20 -21.88487 149.44691 29808 ft 475 kts 164°
2026-04-26 08:20 -21.91564 149.45986 30214 ft 475 kts 164°
2026-04-26 08:20 -21.94641 149.47281 30582 ft 475 kts 164°
2026-04-26 08:20 -21.97716 149.48578 30964 ft 474 kts 164°
2026-04-26 08:21 -22.00782 149.49873 31343 ft 473 kts 164°
2026-04-26 08:21 -22.03847 149.51167 31734 ft 473 kts 164°
2026-04-26 08:21 -22.06900 149.52461 32115 ft 472 kts 164°
2026-04-26 08:21 -22.09956 149.53757 32512 ft 471 kts 164°
2026-04-26 08:22 -22.13003 149.55051 32908 ft 471 kts 164°
2026-04-26 08:22 -22.16048 149.56341 33307 ft 470 kts 164°
2026-04-26 08:22 -22.19092 149.57629 33706 ft 469 kts 164°
2026-04-26 08:22 -22.22132 149.58914 34095 ft 469 kts 164°
2026-04-26 08:23 -22.25168 149.60196 34416 ft 469 kts 165°
2026-04-26 08:23 -22.28204 149.61481 34719 ft 469 kts 165°
2026-04-26 08:23 -22.31239 149.62766 34998 ft 469 kts 165°
2026-04-26 08:23 -22.34280 149.64051 35284 ft 469 kts 165°
2026-04-26 08:24 -22.37316 149.65336 35560 ft 469 kts 165°
2026-04-26 08:24 -22.40354 149.66624 35830 ft 469 kts 165°
2026-04-26 08:24 -22.43397 149.67920 36096 ft 469 kts 165°
2026-04-26 08:24 -22.46433 149.69217 36359 ft 469 kts 165°
2026-04-26 08:25 -22.49468 149.70516 36617 ft 469 kts 165°
2026-04-26 08:25 -22.52505 149.71813 36869 ft 469 kts 166°
2026-04-26 08:25 -22.55547 149.73108 37023 ft 470 kts 166°
2026-04-26 08:25 -22.58593 149.74403 37067 ft 470 kts 166°
2026-04-26 08:26 -22.64671 149.76994 37067 ft 469 kts 166°
2026-04-26 08:26 -22.70751 149.79591 37069 ft 469 kts 165°
2026-04-26 08:27 -22.76817 149.82177 37064 ft 468 kts 165°
2026-04-26 08:27 -22.82877 149.84766 37068 ft 468 kts 165°
2026-04-26 08:28 -22.88924 149.87360 37075 ft 467 kts 165°
2026-04-26 08:28 -22.94973 149.89947 37077 ft 467 kts 165°
2026-04-26 08:29 -23.01004 149.92534 37076 ft 466 kts 165°
2026-04-26 08:29 -23.07032 149.95129 37071 ft 466 kts 165°
2026-04-26 08:30 -23.13067 149.97719 37074 ft 466 kts 165°
2026-04-26 08:30 -23.19090 150.00305 37080 ft 466 kts 164°
2026-04-26 08:31 -23.25114 150.02898 37075 ft 465 kts 164°
2026-04-26 08:31 -23.31136 150.05495 37082 ft 465 kts 164°
2026-04-26 08:32 -23.37163 150.08089 37084 ft 466 kts 164°
2026-04-26 08:32 -23.43188 150.10689 37082 ft 466 kts 164°
2026-04-26 08:33 -23.49230 150.13298 37087 ft 467 kts 164°
2026-04-26 08:33 -23.55266 150.15919 37085 ft 468 kts 164°
2026-04-26 08:34 -23.61313 150.18537 37092 ft 468 kts 164°
2026-04-26 08:34 -23.67371 150.21156 37087 ft 468 kts 164°
2026-04-26 08:35 -23.73390 150.23768 37092 ft 469 kts 164°
2026-04-26 08:35 -23.79493 150.26423 37093 ft 469 kts 164°
2026-04-26 08:36 -23.85566 150.29059 37094 ft 470 kts 164°
2026-04-26 08:36 -23.91642 150.31704 37095 ft 471 kts 164°
2026-04-26 08:37 -23.97689 150.34344 37097 ft 471 kts 164°
2026-04-26 08:37 -24.03780 150.37002 37098 ft 471 kts 164°
2026-04-26 08:38 -24.09869 150.39656 37104 ft 471 kts 164°
2026-04-26 08:38 -24.15964 150.42315 37103 ft 472 kts 164°
2026-04-26 08:39 -24.22058 150.44983 37104 ft 472 kts 164°
2026-04-26 08:39 -24.28164 150.47654 37106 ft 472 kts 164°
2026-04-26 08:40 -24.34263 150.50331 37112 ft 472 kts 164°
2026-04-26 08:40 -24.40362 150.53012 37112 ft 472 kts 164°
2026-04-26 08:41 -24.46461 150.55688 37113 ft 472 kts 164°
2026-04-26 08:41 -24.52306 150.59076 37118 ft 481 kts 151°
2026-04-26 08:42 -24.57879 150.63161 37121 ft 481 kts 151°
2026-04-26 08:42 -24.63458 150.67233 37125 ft 481 kts 151°
2026-04-26 08:43 -24.69039 150.71298 37131 ft 481 kts 151°
2026-04-26 08:43 -24.74619 150.75374 37129 ft 481 kts 151°
2026-04-26 08:44 -24.80191 150.79451 37133 ft 481 kts 151°
2026-04-26 08:44 -24.85756 150.83537 37135 ft 481 kts 151°
2026-04-26 08:45 -24.91325 150.87630 37126 ft 481 kts 151°
2026-04-26 08:45 -24.96894 150.91713 37133 ft 481 kts 151°
2026-04-26 08:46 -25.02461 150.95796 37137 ft 480 kts 151°
2026-04-26 08:46 -25.08017 150.99885 37137 ft 480 kts 151°
2026-04-26 08:47 -25.13567 151.03975 37141 ft 480 kts 151°
2026-04-26 08:47 -25.19108 151.08069 37136 ft 479 kts 151°
2026-04-26 08:48 -25.24651 151.12161 37139 ft 479 kts 151°
2026-04-26 08:48 -25.30186 151.16247 37137 ft 478 kts 151°
2026-04-26 08:49 -25.35713 151.20347 37142 ft 478 kts 151°
2026-04-26 08:49 -25.41232 151.24438 37140 ft 478 kts 151°
2026-04-26 08:50 -25.46751 151.28531 37141 ft 477 kts 151°
2026-04-26 08:50 -25.52261 151.32622 37143 ft 477 kts 151°
2026-04-26 08:51 -25.60511 151.38756 37142 ft 476 kts 151°
2026-04-26 08:52 -25.66004 151.42841 37146 ft 475 kts 151°
2026-04-26 08:52 -25.71488 151.46935 37149 ft 475 kts 151°
2026-04-26 08:53 -25.76744 151.51407 37152 ft 480 kts 142°
2026-04-26 08:53 -25.81682 151.56318 37152 ft 479 kts 142°
2026-04-26 08:54 -25.86647 151.61256 37156 ft 479 kts 142°
2026-04-26 08:54 -25.91604 151.66187 37156 ft 478 kts 142°
2026-04-26 08:55 -25.96556 151.71115 37162 ft 477 kts 142°
2026-04-26 08:55 -26.01495 151.76039 37161 ft 477 kts 142°
2026-04-26 08:56 -26.06429 151.80949 37164 ft 476 kts 142°
2026-04-26 08:56 -26.11357 151.85871 37172 ft 476 kts 142°
2026-04-26 08:57 -26.16256 151.90775 37164 ft 475 kts 142°
2026-04-26 08:57 -26.21171 151.95699 37167 ft 475 kts 142°
2026-04-26 08:58 -26.26083 152.00627 37169 ft 475 kts 142°
2026-04-26 08:58 -26.28537 152.03090 36817 ft 476 kts 142°
2026-04-26 08:58 -26.30172 152.04728 36314 ft 479 kts 142°
2026-04-26 08:58 -26.32660 152.07217 35606 ft 481 kts 142°
2026-04-26 08:59 -26.35156 152.09715 34931 ft 483 kts 142°
2026-04-26 08:59 -26.37658 152.12227 34275 ft 485 kts 142°
2026-04-26 08:59 -26.40163 152.14749 33542 ft 486 kts 142°
2026-04-26 08:59 -26.42669 152.17276 32827 ft 486 kts 142°
2026-04-26 09:00 -26.45175 152.19805 32124 ft 485 kts 141°
2026-04-26 09:00 -26.47674 152.22327 31418 ft 484 kts 141°
2026-04-26 09:00 -26.50170 152.24848 30708 ft 483 kts 141°
2026-04-26 09:00 -26.52653 152.27358 29955 ft 481 kts 141°
2026-04-26 09:01 -26.55138 152.29874 29074 ft 480 kts 141°
2026-04-26 09:01 -26.57609 152.32378 28175 ft 480 kts 140°
2026-04-26 09:01 -26.60088 152.34885 27247 ft 479 kts 140°
2026-04-26 09:01 -26.62526 152.37347 26331 ft 478 kts 140°
2026-04-26 09:02 -26.64987 152.39839 25375 ft 478 kts 140°
2026-04-26 09:02 -26.67437 152.42347 24416 ft 477 kts 139°
2026-04-26 09:02 -26.69854 152.44845 23746 ft 469 kts 139°
2026-04-26 09:02 -26.72226 152.47310 22924 ft 462 kts 139°
2026-04-26 09:03 -26.74560 152.49737 22132 ft 455 kts 138°
2026-04-26 09:03 -26.76863 152.52131 21369 ft 449 kts 138°
2026-04-26 09:03 -26.79138 152.54490 20623 ft 442 kts 138°
2026-04-26 09:03 -26.81381 152.56814 19919 ft 436 kts 137°
2026-04-26 09:04 -26.83600 152.59111 19213 ft 431 kts 137°
2026-04-26 09:04 -26.85782 152.61367 18515 ft 425 kts 137°
2026-04-26 09:04 -26.87920 152.63580 18268 ft 409 kts 137°
2026-04-26 09:04 -26.89711 152.65431 18156 ft 396 kts 137°
2026-04-26 09:05 -26.91702 152.67484 18013 ft 382 kts 137°
2026-04-26 09:05 -26.93618 152.69463 17875 ft 367 kts 137°
2026-04-26 09:05 -26.95461 152.71365 17745 ft 354 kts 137°
2026-04-26 09:05 -26.97239 152.73202 17610 ft 341 kts 137°
2026-04-26 09:06 -26.98937 152.74996 17477 ft 330 kts 131°
2026-04-26 09:06 -27.00255 152.77046 17039 ft 320 kts 117°
2026-04-26 09:06 -27.01148 152.79316 16360 ft 316 kts 112°
2026-04-26 09:06 -27.01987 152.81584 15700 ft 313 kts 112°
2026-04-26 09:07 -27.02817 152.83830 15069 ft 310 kts 112°
2026-04-26 09:07 -27.03642 152.86052 14440 ft 307 kts 112°
2026-04-26 09:07 -27.04436 152.88186 13848 ft 304 kts 112°
2026-04-26 09:07 -27.05234 152.90329 13192 ft 301 kts 112°
2026-04-26 09:08 -27.05796 152.91840 12745 ft 298 kts 112°
2026-04-26 09:08 -27.06588 152.93970 12135 ft 294 kts 112°
2026-04-26 09:08 -27.07329 152.96084 11522 ft 289 kts 106°
2026-04-26 09:08 -27.07791 152.98262 10926 ft 285 kts 103°
2026-04-26 09:09 -27.08232 153.00412 10348 ft 282 kts 103°
2026-04-26 09:09 -27.08672 153.02542 9735 ft 278 kts 103°
2026-04-26 09:09 -27.09108 153.04642 9103 ft 275 kts 103°
2026-04-26 09:09 -27.09538 153.06716 8475 ft 272 kts 103°
2026-04-26 09:10 -27.09963 153.08778 7868 ft 269 kts 103°
2026-04-26 09:10 -27.10385 153.10818 7267 ft 267 kts 104°
2026-04-26 09:10 -27.10638 153.12872 6674 ft 265 kts 93°
2026-04-26 09:10 -27.10691 153.14904 6351 ft 252 kts 93°
2026-04-26 09:11 -27.10733 153.16286 6077 ft 245 kts 94°
2026-04-26 09:11 -27.10793 153.18175 5611 ft 240 kts 94°
2026-04-26 09:11 -27.11033 153.19982 5156 ft 233 kts 107°
2026-04-26 09:11 -27.11463 153.21683 4920 ft 220 kts 107°
2026-04-26 09:12 -27.12007 153.23208 4758 ft 202 kts 124°
2026-04-26 09:12 -27.12937 153.24288 4635 ft 185 kts 144°
2026-04-26 09:12 -27.14047 153.24876 4508 ft 170 kts 158°
2026-04-26 09:12 -27.15081 153.25250 4398 ft 147 kts 161°
2026-04-26 09:13 -27.16082 153.25339 4307 ft 143 kts 179°
2026-04-26 09:13 -27.17052 153.25069 4209 ft 145 kts 197°
2026-04-26 09:13 -27.17961 153.24554 4136 ft 146 kts 199°
2026-04-26 09:13 -27.18862 153.24037 4074 ft 145 kts 200°
2026-04-26 09:14 -27.19764 153.23524 3994 ft 146 kts 199°
2026-04-26 09:14 -27.20673 153.23009 3726 ft 144 kts 199°
2026-04-26 09:14 -27.21566 153.22501 3506 ft 144 kts 199°
2026-04-26 09:14 -27.22459 153.21994 3300 ft 144 kts 199°
2026-04-26 09:15 -27.23347 153.21487 3097 ft 143 kts 199°
2026-04-26 09:15 -27.24230 153.20985 2911 ft 143 kts 199°
2026-04-26 09:15 -27.25109 153.20484 2728 ft 141 kts 199°
2026-04-26 09:15 -27.25978 153.19988 2530 ft 140 kts 200°
2026-04-26 09:16 -27.26837 153.19498 2350 ft 137 kts 198°
2026-04-26 09:16 -27.27690 153.19012 2167 ft 137 kts 199°
2026-04-26 09:16 -27.28538 153.18528 1994 ft 136 kts 199°
2026-04-26 09:16 -27.29380 153.18048 1804 ft 135 kts 199°
2026-04-26 09:17 -27.30213 153.17573 1620 ft 134 kts 200°
2026-04-26 09:17 -27.31027 153.17108 1440 ft 133 kts 200°
2026-04-26 09:17 -27.31857 153.16635 1268 ft 134 kts 200°
2026-04-26 09:17 -27.32689 153.16160 1094 ft 133 kts 199°
2026-04-26 09:18 -27.33513 153.15690 920 ft 134 kts 201°
2026-04-26 09:18 -27.34343 153.15216 738 ft 134 kts 204°
2026-04-26 09:18 -27.35183 153.14749 549 ft 135 kts 204°
2026-04-26 09:18 -27.36026 153.14274 359 ft 133 kts 206°
2026-04-26 09:19 -27.36850 153.13784 205 ft 134 kts 204°
2026-04-26 09:19 -27.37681 153.13315 39 ft 128 kts 207°
2026-04-26 09:19 -27.38374 153.12914 29 ft 93 kts 206°
2026-04-26 09:19 -27.38810 153.12660 23 ft 67 kts 206°
2026-04-26 09:20 -27.39163 153.12467 22 ft 46 kts 206°
2026-04-26 09:20 -27.39400 153.12322 20 ft 34 kts 207°
2026-04-26 09:20 -27.39576 153.12172 21 ft 26 kts 250°
2026-04-26 09:20 -27.39535 153.12035 19 ft 20 kts 292°
2026-04-26 09:21 -27.39437 153.11951 18 ft 20 kts
2026-04-26 09:21 -27.39304 153.12014 19 ft 22 kts 29°
2026-04-26 09:21 -27.39160 153.12099 18 ft 25 kts 26°
2026-04-26 09:21 -27.38999 153.12189 19 ft 27 kts 27°
2026-04-26 09:22 -27.38873 153.12180 18 ft 20 kts 317°
2026-04-26 09:22 -27.38769 153.12072 18 ft 11 kts 319°
2026-04-26 09:22 -27.38724 153.12036 19 ft 5 kts 38°
2026-04-26 09:22 -27.38694 153.12026 18 ft 6 kts 310°
2026-04-26 09:23 -27.38684 153.12012 18 ft 0 kts 308°
2026-04-26 09:57 -27.38684 153.12013 18 ft 0 kts 308°
2026-04-26 10:09 -27.38685 153.12013 18 ft 0 kts 308°